sat.trackr.live / text

‹ back to catalog

STARLINK-35376

NORAD 66018 · 2025-232P

PAYLOAD ACTIVE UNKNOWN

§ Identity

Operator
Country
US
Launch date
2025-10-16
Launch site
AFETR
Launch vehicle
Mass (kg)
RCS (m²)

Purposes: comms

External: N2YO · Heavens-Above · Gunter

§ Orbital elements

Epoch: 2026-05-25T04:28:44.342976Z

Period
94.10 min
Inclination
53.1571°
Eccentricity
0.0001086
Mean motion
15.30207907 rev/d
Perigee alt
474.4 km
Apogee alt
475.9 km
Semi-major
6,853.3 km
B*
7.8463e-4
RAAN
108.8654°
Arg perigee
86.2079°
Mean anomaly
273.9046°
Rev number
3,514

§ Raw data

STARLINK-353761 66018U 25232P   26145.18662434  .00022957  00000+0  78463-3 0  99922 66018  53.1571 108.8654 0001086  86.2079 273.9046 15.30207907 35142

JSON: /api/v1/satellites/66018 · /tle

For live sub-satellite position, see the globe view (requires WebGL).

§ Visibility from observer

Set your observer location to see the next 7 days of passes ≥ 10°. The values pass through the URL so the page stays shareable.

No JS? Fill the form by hand. The geolocation button needs JavaScript.